RH
81 80 80 81 80 79 82 82 81 82 82 82 81 84 85 86 86 31 10 23 23 59 58 22 23 24 24 24 27 28 45 78 76 46 37 24 28 27 21 24 26 25 23 26 26
81 80 80 81 81 81 79 80 79 80 80 81 82 83 84 86 27 10 28 55 60 64 24 23 23 22 27 24 28 34 71 67 89 44 31 25 27 25 23 24 28 24 24 26 27
80 80 81 80 82 81 82 80 80 81 82 81 83 84 84 69 22 7 55 55 59 48 20 18 17 19 35 23 29 47 75 54 45 37 36 25 26 22 33 30 27 30 29 29 29
84 83 82 82 82 84 82 82 80 82 82 82 84 83 84 35 19 11 63 64 62 19 15 18 16 28 33 39 30 59 49 47 50 41 39 34 26 31 42 27 22 24 26 28 30
85 85 84 84 84 84 84 84 84 81 83 84 83 83 56 22 15 15 62 50 15 14 13 16 16 27 38 30 42 44 63 61 52 41 38 31 33 29 29 24 22 24 26 27 35
87 90 85 85 85 84 86 85 85 86 82 85 83 85 38 20 12 15 9 12 10 10 11 13 14 18 29 30 43 40 51 68 65 46 38 42 32 32 27 22 25 27 28 29 37
89 91 89 86 86 88 86 86 86 85 83 86 81 50 25 16 12 12 10 9 8 10 11 11 15 22 37 31 32 39 56 60 66 46 40 40 41 75 28 23 26 26 32 29 30
92 91 90 86 86 86 88 89 87 86 85 85 81 39 18 12 10 9 10 9 8 9 9 9 10 12 30 25 31 42 51 87 68 48 54 44 68 46 30 26 28 26 30 32 33
92 91 91 90 87 88 92 90 87 84 83 78 50 29 16 25 11 6 7 8 8 9 10 8 11 20 22 44 78 38 53 69 62 45 52 53 72 53 32 30 29 28 30 33 32
92 91 91 91 91 89 92 90 82 82 64 33 24 20 14 11 8 5 5 5 10 11 11 10 15 22 19 55 54 43 35 42 48 51 46 44 45 36 31 36 58 27 28 32 60
91 91 91 92 89 90 67 34 32 26 21 14 12 11 10 7 7 6 6 8 11 12 14 11 16 20 35 32 62 35 28 33 36 41 45 50 33 40 30 28 51 34 33 28 40
90 90 91 90 89 91 47 15 10 9 12 9 9 9 8 6 8 7 6 11 12 13 11 11 14 17 14 18 24 23 27 38 34 33 36 40 48 35 31 32 31 41 27 35 27
90 90 90 89 91 60 13 10 9 8 12 10 8 8 9 6 7 8 7 8 10 12 10 11 10 11 12 14 15 16 18 24 40 33 29 35 45 37 33 36 35 32 41 28 32
89 89 91 91 64 9 10 8 8 8 15 12 10 9 8 6 7 6 6 7 7 8 9 8 8 11 12 11 12 15 13 15 20 38 90 30 92 51 33 31 34 28 28 29 26
89 88 90 95 33 10 8 7 7 10 23 10 8 7 6 8 7 7 5 6 7 6 7 9 8 10 12 10 10 14 13 14 18 19 29 25 35 37 31 38 35 31 28 25 25
88 88 91 57 33 12 7 7 10 16 20 10 9 10 9 8 7 6 6 6 5 6 6 6 6 8 9 8 9 11 13 16 16 17 23 29 16 40 40 30 43 37 28 27 28
87 89 79 31 15 10 7 9 17 17 12 11 10 8 9 9 8 8 8 8 9 12 12 8 9 8 8 12 12 13 14 25 30 24 39 24 17 24 26 18 21 25 28 28 28
86 91 62 22 16 12 10 12 22 12 11 9 8 8 10 9 9 8 9 9 7 7 7 10 11 9 8 12 17 14 12 22 37 23 32 20 16 23 14 17 20 22 23 27 28
89 25 16 14 14 12 9 13 14 10 9 12 10 10 10 8 8 10 10 9 8 7 10 9 10 8 9 8 10 14 14 9 10 9 12 12 17 14 16 18 21 20 25 28 30
39 16 14 11 12 10 11 17 10 7 12 12 14 11 12 10 10 10 11 9 8 6 6 9 13 11 10 9 9 10 11 12 10 20 26 20 19 19 24 24 21 23 24 32 34
36 18 16 10 10 11 11 11 8 7 11 13 13 12 11 10 10 10 10 9 7 6 6 7 10 17 12 12 12 12 12 12 10 16 21 19 26 19 24 20 23 26 26 31 33
23 19 16 9 12 10 10 8 33 8 8 12 14 14 13 10 10 10 10 10 7 7 9 8 8 19 15 10 11 14 13 11 14 22 18 19 18 17 19 22 23 26 28 30 34
29 18 14 12 17 12 11 11 10 9 8 11 12 13 12 14 16 11 9 8 8 8 10 9 11 14 22 14 12 12 11 11 11 11 20 20 25 18 21 24 25 26 27 32 33
30 22 20 18 17 20 19 17 14 9 8 9 11 12 16 17 14 16 12 9 9 9 49 20 10 13 15 29 17 17 12 13 12 14 16 15 22 22 22 26 26 28 29 27 34
25 26 28 25 22 25 23 22 21 18 13 10 13 14 15 22 18 16 13 11 11 32 14 10 16 13 12 17 15 13 12 11 15 15 17 15 16 15 21 22 26 27 31 31 33
29 31 26 25 24 27 31 24 22 19 19 21 18 13 14 21 21 19 19 17 16 13 16 11 18 15 15 12 13 12 11 10 10 13 14 14 15 12 17 20 21 27 30 32 31
27 25 29 35 22 22 22 20 21 21 23 21 21 22 23 19 21 20 20 20 19 21 18 16 15 19 21 16 13 16 13 11 11 11 13 16 15 14 19 24 25 28 29 28 27
Wind_Speed
12 12 12 11 10 9 10 9 9 9 8 8 9 12 12 11 15 10 11 5 4 14 7 11 10 11 10 9 2 8 8 6 2 9 14 13 12 7 7 11 6 3 19 20 17
13 13 12 12 10 9 9 9 8 8 8 8 10 11 11 10 12 14 7 10 9 10 14 11 13 10 14 5 5 7 2 2 8 11 11 12 9 11 10 10 10 13 22 20 17
15 14 12 12 11 9 9 8 8 8 9 9 10 11 10 12 13 7 11 11 8 11 18 12 8 12 7 3 1 6 2 2 6 10 8 12 9 4 12 10 13 16 19 18 15
15 15 14 12 11 10 9 9 8 8 8 9 11 10 9 12 4 11 10 10 8 13 13 10 13 7 8 8 12 5 5 2 6 2 1 8 7 16 5 12 15 16 17 15 13
17 15 14 13 12 11 10 10 8 7 8 9 9 8 9 11 4 12 11 9 11 12 13 12 11 5 14 7 7 11 5 5 2 2 2 4 10 7 13 11 14 17 16 15 9
18 15 15 15 13 12 11 10 10 8 8 9 8 5 8 14 8 15 13 13 13 11 12 11 8 10 8 3 6 13 9 7 9 6 2 5 9 5 12 13 15 15 15 13 17
19 17 15 16 14 13 13 12 11 10 9 9 7 9 12 3 1 8 12 13 12 11 12 7 10 9 8 11 15 15 15 11 11 2 2 6 10 4 9 12 15 16 12 12 13
19 18 17 17 16 15 13 11 11 11 10 9 7 11 3 4 2 7 11 12 8 11 10 5 8 15 4 12 15 12 13 3 8 5 4 9 1 7 10 12 14 15 12 11 14
19 18 17 16 17 16 13 13 10 10 10 8 9 11 5 5 10 10 11 12 12 11 8 7 12 15 9 3 8 16 14 10 2 11 2 3 3 11 9 13 11 13 16 12 12
19 18 18 17 16 16 13 8 6 7 9 10 10 10 10 12 10 10 10 9 13 11 11 12 10 15 11 6 2 2 13 12 10 10 10 11 13 14 11 12 6 14 16 15 7
20 18 18 17 18 15 9 6 8 9 13 14 11 9 8 7 11 12 12 14 14 11 15 13 14 11 18 13 23 19 9 15 10 16 10 10 14 12 13 10 24 13 11 15 9
21 20 18 18 19 13 8 10 8 8 11 15 7 7 2 10 13 15 15 13 14 15 15 9 13 3 8 10 11 0 12 3 9 12 8 10 13 11 10 10 9 6 15 10 15
22 21 18 20 17 6 12 11 5 7 9 13 10 12 11 13 12 16 16 17 14 16 15 15 7 4 5 8 10 10 5 9 13 11 11 10 5 14 14 13 11 11 6 12 9
23 21 18 20 6 4 12 9 7 5 9 17 12 7 11 13 11 17 17 13 10 15 14 12 15 3 9 10 13 5 2 1 6 6 3 8 2 16 15 16 17 14 12 14 9
24 21 18 7 12 10 5 3 6 7 9 14 14 13 14 16 14 14 16 13 14 13 10 14 12 10 12 13 7 5 5 8 8 10 17 7 6 6 14 16 16 13 16 15 14
25 22 18 7 7 9 5 4 7 9 6 11 11 12 15 14 9 11 14 14 14 14 14 19 5 10 14 4 5 4 9 4 10 12 9 5 12 7 6 11 13 19 18 14 14
27 22 10 8 3 2 6 8 9 13 7 11 16 17 16 12 11 14 16 17 12 12 14 15 12 12 6 13 8 14 13 5 6 4 6 10 9 11 15 4 6 6 4 6 12
31 21 9 9 5 6 7 11 12 8 15 4 14 15 16 13 12 16 16 16 17 18 11 13 17 17 12 18 2 13 12 4 14 10 11 12 4 8 9 9 7 7 4 1 6
33 7 7 4 3 6 10 13 14 14 8 5 12 11 14 14 12 16 16 15 17 17 18 12 14 19 12 11 11 5 6 10 12 6 8 4 6 10 9 8 8 5 6 2 2
9 7 4 3 6 8 10 16 13 2 7 7 15 17 16 18 14 12 15 15 15 14 19 7 8 13 13 11 12 13 12 9 9 4 9 7 6 7 12 8 7 5 6 5 4
7 6 7 4 6 9 11 14 13 8 8 12 13 20 12 17 20 16 12 11 13 14 15 17 12 1 10 12 17 11 13 12 12 6 7 5 8 9 7 4 8 8 2 7 1
7 5 5 5 8 10 12 16 4 9 11 14 10 16 15 14 14 13 15 13 13 15 18 17 11 15 21 8 3 12 10 15 10 9 8 7 4 13 9 9 3 9 6 8 4
8 5 5 6 8 8 12 6 9 12 15 11 13 14 13 14 10 16 16 12 8 13 8 13 13 13 7 17 12 10 14 14 13 14 4 9 7 9 9 9 6 10 8 8 4
6 4 5 6 6 11 12 8 12 12 15 13 10 14 8 13 15 12 14 8 6 14 9 11 16 17 11 10 1 9 12 6 12 11 10 12 15 12 11 7 7 7 4 5 5
4 5 5 6 2 9 10 12 10 13 11 13 12 16 16 12 16 16 17 13 7 5 10 15 18 20 15 22 14 10 7 8 12 14 16 6 4 8 11 8 9 7 10 4 5
7 6 11 13 12 10 9 12 14 13 7 11 16 17 12 12 14 14 11 6 11 14 12 18 18 20 17 20 19 10 9 10 12 12 13 13 11 3 11 7 5 9 9 7 6
7 7 7 10 10 9 9 9 9 9 9 15 12 9 8 10 10 10 13 14 16 16 10 16 15 18 16 17 14 13 11 15 13 12 12 12 9 9 9 7 8 10 9 7 5
Wind_Direction
349 344 339 337 328 322 320 317 318 319 318 311 304 303 308 314 294 230 238 45 145 165 205 203 215 213 228 239 295 276 257 256 272 157 118 127 116 75 89 151 59 54 132 125 144
350 349 346 339 333 325 318 315 310 310 306 299 300 298 304 317 270 245 149 109 149 176 211 199 206 205 232 184 225 264 349 14 34 242 130 131 121 129 159 127 107 102 106 131 152
356 351 347 343 336 327 317 311 308 302 302 300 292 295 303 298 260 149 117 132 170 211 247 243 293 250 342 159 7 332 139 131 51 42 11 119 127 112 36 143 130 124 132 146 160
354 354 349 341 336 328 315 306 300 297 293 291 290 294 303 258 237 90 118 140 180 227 251 236 250 255 184 142 124 89 101 29 49 73 266 124 99 118 187 83 123 133 140 153 165
357 351 347 344 337 329 318 307 294 288 282 278 283 293 269 215 74 125 138 156 192 218 238 241 269 10 263 81 63 116 126 56 19 286 248 143 146 124 87 111 122 132 149 154 125
351 346 349 343 339 331 318 305 295 281 273 275 273 280 242 245 99 135 183 176 218 220 229 250 296 315 332 72 120 112 111 82 311 314 213 279 132 73 121 129 128 148 153 153 160
345 343 343 343 337 330 319 303 286 273 260 263 260 253 256 26 76 160 188 206 216 228 244 232 299 271 58 114 112 121 120 153 231 301 38 199 107 119 151 145 146 147 148 156 151
342 340 340 341 336 329 319 301 280 260 249 251 245 250 281 89 231 192 191 202 214 233 268 317 280 275 148 125 162 140 124 145 185 209 340 305 187 334 162 166 164 150 144 153 150
339 336 336 332 334 327 320 307 267 234 229 220 230 232 183 139 206 190 196 202 199 218 230 279 267 251 221 108 354 170 120 127 158 182 215 265 200 267 245 152 191 165 154 163 161
336 335 333 329 328 326 315 291 148 187 217 214 266 256 175 208 178 168 200 215 194 203 228 237 241 228 230 105 338 254 107 150 141 192 182 184 196 201 217 188 2 185 160 167 289
333 332 330 327 329 321 290 195 201 197 212 256 151 252 146 143 152 187 185 190 197 214 227 200 242 248 175 118 207 248 86 103 105 153 169 228 172 166 184 209 165 218 178 174 186
330 329 329 326 325 313 254 254 40 354 291 204 239 257 244 165 180 178 187 200 202 211 229 206 244 202 141 215 239 194 93 35 123 159 194 201 177 155 185 194 193 255 173 174 167
328 327 328 326 323 251 242 278 340 327 258 163 192 207 181 194 190 173 198 218 196 223 219 258 258 45 303 274 257 229 159 185 144 177 219 180 206 168 175 178 201 219 284 207 183
326 325 324 324 286 213 225 225 251 308 270 152 183 191 163 206 202 180 201 211 227 238 238 238 264 230 238 251 266 225 24 233 175 137 311 155 242 275 183 180 185 210 226 221 199
323 325 319 290 323 244 47 199 282 249 270 150 157 127 173 216 123 194 178 212 250 220 250 227 226 240 236 248 228 72 229 225 255 257 206 181 120 226 156 182 193 214 206 230 216
322 325 321 196 218 277 287 236 247 234 257 155 141 187 181 216 187 142 191 222 228 247 216 273 213 212 225 229 256 314 235 260 228 230 232 169 281 156 342 162 211 187 217 218 219
321 322 291 310 21 345 245 232 223 250 91 162 173 181 202 187 167 171 185 200 210 215 211 218 218 216 259 213 175 219 216 208 264 207 12 200 278 115 178 73 82 110 115 208 226
318 316 193 275 308 260 223 222 246 244 236 110 192 186 207 189 200 187 193 213 221 229 221 206 195 206 192 253 313 246 277 214 244 215 141 197 218 91 79 109 122 159 132 194 222
310 195 232 102 223 232 223 224 218 260 310 188 207 229 215 223 229 197 216 218 215 218 250 201 249 169 202 228 247 270 243 319 315 242 277 179 122 161 124 156 163 185 103 146 43
308 267 93 151 179 219 233 244 247 263 336 297 270 203 237 205 206 230 211 217 233 204 240 285 206 183 187 234 250 276 312 216 233 264 255 68 200 146 169 144 181 156 166 119 129
258 253 86 220 210 225 230 236 246 180 252 262 258 262 242 264 201 225 226 215 206 187 208 255 262 190 152 210 238 195 238 253 265 244 277 247 68 78 85 142 169 115 107 103 92
285 262 79 223 223 221 238 245 353 256 206 253 262 290 277 265 268 230 238 248 181 225 195 227 246 176 215 179 145 282 263 237 238 203 320 329 37 103 113 119 128 119 145 124 88
302 304 145 238 258 224 240 266 257 250 239 234 241 251 261 261 264 263 243 242 181 233 208 219 244 257 170 188 202 238 237 258 270 287 235 283 104 105 124 141 149 162 157 158 143
281 271 160 218 288 286 305 268 247 216 274 284 273 276 266 259 267 266 266 212 233 242 11 269 244 245 246 50 220 218 225 233 268 262 241 236 134 164 143 149 164 182 155 171 154
323 37 8 291 115 324 304 288 286 259 198 256 243 250 252 259 252 245 244 267 196 191 243 237 248 253 287 177 273 236 273 281 218 262 279 339 248 104 119 153 177 189 160 178 161
331 341 347 288 274 269 253 258 256 260 256 259 238 262 219 245 261 268 332 274 288 192 226 235 242 253 230 253 196 252 269 258 269 248 257 270 281 59 120 138 183 172 166 178 166
360 316 284 294 273 274 272 287 279 299 295 269 309 311 257 264 351 335 307 293 287 296 233 241 244 249 254 242 261 222 245 259 244 236 240 257 238 266 132 171 181 163 172 164 152